Washington, MS

2:36 AM CDT on September 29, 2016 (GMT -0500)
Hardy-Anders-Adams County

Weather History for KHEZ - November, 2013

Change the Weather History Date:

Monday, November 18, 2013

  Actual Average Record
Temperature  
Mean Temperature 64 °F -  
Max Temperature 75 °F 69 °F 84 °F (1942)
Min Temperature 53 °F 50 °F 22 °F (1959)
Degree Days  
Heating Degree Days 1    
Growing Degree Days 14 (Base 50)    
Moisture  
Dew Point 44 °F    
Average Humidity 49    
Maximum Humidity 100    
Minimum Humidity 22    
Precipitation  
Precipitation 0.00 in - - ()
Sea Level Pressure  
Sea Level Pressure 30.08 in    
Wind  
Wind Speed 8 mph (NNE)    
Max Wind Speed 15 mph    
Max Gust Speed 23 mph    
Visibility 10 miles    
Events      
Averages and records for this station are not official NWS values.
T = Trace of Precipitation, MM = Missing Value Source: NWS Daily Summary

Daily Weather History Graph

Daily Weather History Graph

Search for Another Location

Airport or City:

Trip Planner

Search our weather history database for the weather conditions in past years. The results will help you decide how hot, cold, wet, or windy it might be!

Date:

Astronomy

Nov. 18, 2013 Rise Set
Actual Time 6:36 AM CST 5:04 PM CST
Civil Twilight 6:10 AM CST 5:30 PM CST
Nautical Twilight 5:40 AM CST 6:00 PM CST
Astronomical Twilight 5:11 AM CST 6:29 PM CST
Moon 6:08 PM CST (11/18) 7:24 AM CST (11/18)
Length of Visible Light 11h 20m
Length of Day
10h 28m
Full, 99% of the Moon is Illuminated
Nov 18
Full
Nov 25
Last Quarter
Dec 2
New
Dec 9
First Quarter
Dec 17
Full

Hourly Weather History & Observations

Time (CST) Temp. Dew Point Humidity Pressure Visibility Wind Dir Wind Speed Gust Speed Precip Events Conditions
12:15 AM 73.4 °F 71.6 °F 94% 29.97 in 10.0 mi SW 4.6 mph - N/A   Overcast
12:35 AM 73.4 °F 71.6 °F 94% 29.97 in 10.0 mi SSW 5.8 mph - N/A   Overcast
12:55 AM 73.4 °F 71.6 °F 94% 29.97 in 9.0 mi SW 4.6 mph - N/A   Overcast
1:15 AM 73.4 °F 71.6 °F 94% 29.97 in 8.0 mi West 4.6 mph - N/A   Overcast
1:35 AM 73.4 °F 71.6 °F 94% 29.98 in 8.0 mi WSW 4.6 mph - N/A   Overcast
1:55 AM 73.4 °F 71.6 °F 94% 29.98 in 7.0 mi WSW 4.6 mph - N/A   Overcast
2:15 AM 73.4 °F 71.6 °F 94% 29.97 in 7.0 mi West 5.8 mph - N/A   Overcast
2:35 AM 73.4 °F 71.6 °F 94% 29.97 in 7.0 mi NW 3.5 mph - N/A   Overcast
2:55 AM 73.4 °F 71.6 °F 94% 29.97 in 5.0 mi WNW 4.6 mph - N/A   Overcast
3:15 AM 73.4 °F 71.6 °F 94% 29.97 in 5.0 mi WNW 6.9 mph - N/A   Overcast
3:35 AM 71.6 °F 71.6 °F 100% 29.99 in 5.0 mi North 13.8 mph 23.0 mph N/A   Mostly Cloudy
3:55 AM 68.0 °F 62.6 °F 83% 30.00 in 10.0 mi North 11.5 mph 19.6 mph N/A   Mostly Cloudy
4:15 AM 66.2 °F 59.0 °F 78% 30.02 in 10.0 mi NNE 15.0 mph - N/A   Mostly Cloudy
4:35 AM 64.4 °F 53.6 °F 68% 30.03 in 10.0 mi NNE 10.4 mph - N/A   Overcast
4:55 AM 64.4 °F 48.2 °F 56% 30.03 in 10.0 mi NNE 11.5 mph - N/A   Mostly Cloudy
5:15 AM 64.4 °F 44.6 °F 49% 30.03 in 10.0 mi NE 9.2 mph - N/A   Mostly Cloudy
5:35 AM 64.4 °F 42.8 °F 45% 30.03 in 10.0 mi NE 10.4 mph - N/A   Scattered Clouds
5:55 AM 62.6 °F 42.8 °F 48% 30.03 in 10.0 mi NE 9.2 mph - N/A   Scattered Clouds
6:15 AM 62.6 °F 39.2 °F 42% 30.05 in 10.0 mi NE 9.2 mph - N/A   Clear
6:35 AM 62.6 °F 39.2 °F 42% 30.06 in 10.0 mi NE 6.9 mph - N/A   Scattered Clouds
6:55 AM 62.6 °F 39.2 °F 42% 30.06 in 10.0 mi NE 9.2 mph - N/A   Partly Cloudy
7:15 AM 62.6 °F 41.0 °F 45% 30.06 in 10.0 mi NE 6.9 mph - N/A   Clear
7:35 AM 62.6 °F 42.8 °F 48% 30.07 in 10.0 mi NE 6.9 mph - N/A   Clear
7:55 AM 62.6 °F 42.8 °F 48% 30.08 in 10.0 mi ENE 8.1 mph - N/A   Clear
8:15 AM 64.4 °F 42.8 °F 45% 30.08 in 10.0 mi NE 9.2 mph - N/A   Clear
8:35 AM 64.4 °F 44.6 °F 49% 30.09 in 10.0 mi NE 10.4 mph - N/A   Clear
8:55 AM 66.2 °F 44.6 °F 46% 30.09 in 10.0 mi NE 9.2 mph - N/A   Clear
9:15 AM 66.2 °F 42.8 °F 43% 30.09 in 10.0 mi NE 8.1 mph - N/A   Clear
9:35 AM 69.8 °F 42.8 °F 38% 30.10 in 10.0 mi ENE 9.2 mph - N/A   Clear
9:55 AM 69.8 °F 41.0 °F 35% 30.11 in 10.0 mi ENE 8.1 mph 16.1 mph N/A   Clear
10:15 AM 71.6 °F 41.0 °F 33% 30.11 in 10.0 mi NE 10.4 mph 17.3 mph N/A   Clear
10:35 AM 71.6 °F 39.2 °F 31% 30.11 in 10.0 mi ENE 10.4 mph - N/A   Clear
10:55 AM 71.6 °F 37.4 °F 29% 30.11 in 10.0 mi ENE 10.4 mph 19.6 mph N/A   Clear
11:15 AM 73.4 °F 39.2 °F 29% 30.10 in 10.0 mi NNE 9.2 mph - N/A   Partly Cloudy
11:35 AM 73.4 °F 35.6 °F 25% 30.09 in 10.0 mi NE 10.4 mph - N/A   Clear
11:55 AM 73.4 °F 35.6 °F 25% 30.08 in 10.0 mi NNE 13.8 mph 17.3 mph N/A   Clear
12:15 PM 75.2 °F 35.6 °F 24% 30.08 in 10.0 mi NNE 9.2 mph - N/A   Scattered Clouds
12:35 PM 73.4 °F 39.2 °F 29% 30.08 in 10.0 mi North 8.1 mph - N/A   Mostly Cloudy
12:55 PM 75.2 °F 39.2 °F 27% 30.07 in 9.0 mi North 10.4 mph 16.1 mph N/A   Partly Cloudy
1:15 PM 73.4 °F 37.4 °F 27% 30.07 in 10.0 mi North 12.7 mph 16.1 mph N/A   Clear
1:35 PM 73.4 °F 37.4 °F 27% 30.07 in 10.0 mi North 9.2 mph 17.3 mph N/A   Clear
1:55 PM 73.4 °F 35.6 °F 25% 30.07 in 10.0 mi North 9.2 mph 18.4 mph N/A   Clear
2:15 PM 75.2 °F 33.8 °F 22% 30.06 in 10.0 mi North 10.4 mph - N/A   Clear
2:35 PM 73.4 °F 33.8 °F 23% 30.06 in 10.0 mi North 15.0 mph 18.4 mph N/A   Clear
2:55 PM 73.4 °F 33.8 °F 23% 30.07 in 10.0 mi NNE 11.5 mph 18.4 mph N/A   Clear
3:15 PM 73.4 °F 33.8 °F 23% 30.07 in 10.0 mi North 12.7 mph 17.3 mph N/A   Clear
3:35 PM 71.6 °F 33.8 °F 25% 30.07 in 10.0 mi NNE 10.4 mph - N/A   Clear
3:55 PM 71.6 °F 32.0 °F 23% 30.08 in 10.0 mi North 12.7 mph 17.3 mph N/A   Clear
4:15 PM 69.8 °F 32.0 °F 25% 30.08 in 10.0 mi North 9.2 mph - N/A   Clear
4:35 PM 69.8 °F 30.2 °F 23% 30.09 in 10.0 mi North 9.2 mph - N/A   Clear
4:55 PM 68.0 °F 33.8 °F 28% 30.10 in 10.0 mi North 9.2 mph - N/A   Clear
5:15 PM 66.2 °F 33.8 °F 30% 30.11 in 10.0 mi North 9.2 mph - N/A   Clear
5:35 PM 64.4 °F 35.6 °F 34% 30.11 in 10.0 mi North 6.9 mph - N/A   Clear
5:55 PM 62.6 °F 35.6 °F 37% 30.12 in 10.0 mi North 8.1 mph - N/A   Clear
6:15 PM 62.6 °F 35.6 °F 37% 30.12 in 10.0 mi North 8.1 mph - N/A   Clear
6:35 PM 60.8 °F 37.4 °F 42% 30.13 in 10.0 mi North 9.2 mph - N/A   Clear
6:55 PM 60.8 °F 35.6 °F 39% 30.13 in 10.0 mi North 11.5 mph - N/A   Clear
7:15 PM 60.8 °F 35.6 °F 39% 30.14 in 10.0 mi North 10.4 mph - N/A   Clear
7:35 PM 59.0 °F 35.6 °F 42% 30.14 in 10.0 mi North 9.2 mph - N/A   Clear
7:55 PM 59.0 °F 35.6 °F 42% 30.15 in 10.0 mi NNE 10.4 mph - N/A   Clear
8:15 PM 57.2 °F 37.4 °F 48% 30.15 in 10.0 mi NNE 8.1 mph - N/A   Clear
8:35 PM 57.2 °F 37.4 °F 48% 30.15 in 10.0 mi NNE 8.1 mph - N/A   Clear
8:55 PM 57.2 °F 37.4 °F 48% 30.15 in 10.0 mi NNE 10.4 mph - N/A   Clear
9:15 PM 55.4 °F 37.4 °F 51% 30.15 in 10.0 mi NNE 8.1 mph - N/A   Clear
9:35 PM 55.4 °F 37.4 °F 51% 30.15 in 10.0 mi NNE 6.9 mph - N/A   Clear
9:55 PM 55.4 °F 37.4 °F 51% 30.15 in 10.0 mi NNE 8.1 mph - N/A   Clear
10:15 PM 55.4 °F 39.2 °F 54% 30.16 in 10.0 mi NNE 6.9 mph - N/A   Clear
10:35 PM 53.6 °F 39.2 °F 58% 30.16 in 10.0 mi NNE 5.8 mph - N/A   Clear
10:55 PM 53.6 °F 39.2 °F 58% 30.15 in 10.0 mi NNE 6.9 mph - N/A   Clear
11:15 PM 53.6 °F 39.2 °F 58% 30.15 in 10.0 mi NNE 6.9 mph - N/A   Clear
11:35 PM 53.6 °F 39.2 °F 58% 30.16 in 10.0 mi NNE 5.8 mph - N/A   Clear
11:55 PM 53.6 °F 39.2 °F 58% 30.16 in 10.0 mi NNE 6.9 mph - N/A   Clear